David Birch

Log

Date Distance Time Pace Comments Action
05/14/20 2,000m 9:19.4 2:19.8 View workout
05/11/20 2,000m 9:27.6 2:21.9 View workout
05/09/20 6,087m 30:00.0 2:27.8 View workout
05/06/20 2,000m 9:26.5 2:21.6

HR not working

View workout
05/02/20 5,000m 24:54.7 2:29.4

Slowest ever.

View workout
04/29/20 2,000m 9:38.8 2:24.7

First row since accident and new hip

View workout
01/10/20 2,000m 9:10.3 2:17.5 View workout
01/09/20 2,000m 9:03.9 2:15.9 View workout
01/07/20 2,000m 9:21.8 2:20.4 View workout
01/06/20 2,000m 9:15.2 2:18.8 View workout
01/04/20 2,000m 9:23.6 2:20.9 View workout
01/03/20 5,000m 23:26.6 2:20.6 View workout
01/02/20 2,000m 9:05.2 2:16.3 View workout
01/01/20 5,000m 23:43.0 2:22.3

Phone died at end of row and didn't record!

View workout
12/27/19 2,000m 9:07.2 2:16.8 View workout
12/24/19 5,000m 23:32.3 2:21.2 View workout
12/20/19 5,000m 23:55.4 2:23.5 View workout
12/06/19 2,000m 9:09.4 2:17.3 View workout
11/26/19 6,238m 30:00.0 2:24.2 View workout
11/14/19 6,302m 30:00.0 2:22.8 View workout